Location: Brotuna
(46.2000°N, 22.6000°E)
Time: 01:16:36
(UTC+00:00)

BREEZE M DEB (TANK) - Pass Details

Date: 09 April 2020
Orbit: 303 x 11878 km, 49.5° (Epoch: 02 June)

Event Time Altitude Azimuth Distance (km) Brightness Sun altitude
Rises 19:17:10 0° 240° (WSW) 2,363 5.8 -20.8°
Reaches altitude 10° 19:18:32 10° 238° (WSW) 1,731 5.1 -20.9°
Maximum altitude 19:21:57 78° 152° (SSE) 866 3.0 -21.4°
Drops below altitude 10° 19:32:33 10° 68° (ENE) 5,086 6.9 -22.8°
Sets 19:39:47 0° 69° (ENE) 7,833 7.9 -23.7°
